This demonstration page uses our WeatherBlox Daily Observations layout. Learn more.

Left ArrowRight Arrow

31.84235, -102.49876

Hourly Observations for March 28, 2022

Temp ( °F °C ) Dew Point ( °F °C ) Humidity (%) Winds ( mph kmh ) Pressure ( in mb ) Visibility ( mi km ) Precip ( " mm )
12:53 am 00:53 Clear 71 21.7 23 -5 16 16 S 14 22 29.78 1009 10 16 0.00 0.00
1:53 am 01:53 Clear 67 19.4 26 -3.3 21 21 SSE 10 17 29.78 1008 10 16 0.00 0.00
2:53 am 02:53 Clear 65 18.3 27 -2.8 24 24 S 8 13 29.78 1008 10 16 0.00 0.00
3:53 am 03:53 Clear 65 18.3 28 -2.2 25 25 SSW 9 15 29.77 1008 10 16 0.00 0.00
4:53 am 04:53 Clear 61 16.1 28 -2.2 29 29 SSW 10 17 29.77 1008 10 16 0.00 0.00
5:53 am 05:53 Clear 63 17.2 30 -1.1 29 29 S 10 17 29.76 1008 10 16 0.00 0.00
6:53 am 06:53 Clear 63 17.2 32 0 31 31 S 12 19 29.78 1008 10 16 0.00 0.00
7:53 am 07:53 Sunny 61 16.1 34 1.1 36 36 SSW 12 19 29.80 1009 10 16 0.00 0.00
8:53 am 08:53 Sunny 64 17.8 38 3.3 38 38 SSW 15 24 29.83 1010 10 16 0.00 0.00
9:53 am 09:53 Sunny 68 20 39 3.9 35 35 SW 16 26 29.84 1010 10 16 0.00 0.00
10:53 am 10:53 Sunny 74 23.3 36 2.2 25 25 SSW 15 24 29.83 1010 10 16 0.00 0.00
11:53 am 11:53 Sunny 81 27.2 28 -2.2 14 14 SW 15 24 29.82 1010 10 16 0.00 0.00
12:53 pm 12:53 Sunny 86 30 24 -4.4 10 10 WSW 12 19 29.80 1009 10 16 0.00 0.00
1:53 pm 13:53 Sunny 90 32.2 21 -6.1 8 8 SSW 12 19 29.77 1008 10 16 0.00 0.00
2:53 pm 14:53 Sunny 90 32.2 19 -7.2 7 7 S 8 13 29.74 1007 10 16 0.00 0.00
3:53 pm 15:53 Sunny 89 31.7 16 -8.9 7 7 SSW 8 13 29.72 1006 10 16 0.00 0.00
4:53 pm 16:53 Sunny 90 32.2 15 -9.4 6 6 SSW 10 17 29.70 1006 10 16 0.00 0.00
5:53 pm 17:53 Sunny 89 31.7 12 -11.1 5 5 SW 13 20 29.69 1005 10 16 0.00 0.00
6:53 pm 18:53 Sunny 90 32.2 12 -11.1 5 5 S 16 26 29.67 1005 10 16 0.00 0.00
7:53 pm 19:53 Sunny 85 29.4 23 -5 10 10 S 14 22 29.69 1005 10 16 0.00 0.00
8:53 pm 20:53 Clear 82 27.8 27 -2.8 13 13 S 14 22 29.69 1005 10 16 0.00 0.00
9:53 pm 21:53 Clear 79 26.1 39 3.9 24 24 S 17 28 29.70 1006 10 16 0.00 0.00
10:53 pm 22:53 Clear 77 25 43 6.1 30 30 S 16 26 29.70 1006 10 16 0.00 0.00
11:53 pm 23:53 Clear 76 24.4 44 6.7 32 32 S 18 30 29.68 1005 10 16 0.00 0.00

Powered by AerisWeather